Time,TemperatureF,DewpointF,PressureIn,WindDirection,WindDirectionDegrees,WindSpeedMPH,WindSpeedGustMPH,Humidity,HourlyPrecipIn,Conditions,Clouds,dailyrainin,SoftwareType,DateUTC
2013-02-21 00:01:00,29.0,27.0,-100.00,NE,55,6.0,7.0,93,-99.99,,,-99.99,,2013-02-21 08:01:00,
2013-02-21 00:11:00,29.0,27.0,-100.00,NE,55,5.0,8.0,93,-99.99,,,-99.99,,2013-02-21 08:11:00,
2013-02-21 00:21:00,29.0,27.0,-100.00,NE,50,5.0,6.0,93,-99.99,,,-99.99,,2013-02-21 08:21:00,
2013-02-21 00:31:00,29.0,27.0,-100.00,NE,41,4.0,6.0,92,-99.99,,,-99.99,,2013-02-21 08:31:00,
2013-02-21 00:41:00,29.0,27.0,-100.00,NE,47,4.0,7.0,93,-99.99,,,-99.99,,2013-02-21 08:41:00,
2013-02-21 00:51:00,28.0,26.0,-100.00,NE,42,4.0,5.0,93,-99.99,,,-99.99,,2013-02-21 08:51:00,
2013-02-21 01:01:00,28.0,26.0,-100.00,NE,47,4.0,5.0,93,-99.99,,,-99.99,,2013-02-21 09:01:00,
2013-02-21 01:11:00,29.0,27.0,-100.00,ENE,58,4.0,5.0,93,-99.99,,,-99.99,,2013-02-21 09:11:00,
2013-02-21 01:22:00,29.0,27.0,-100.00,ENE,65,3.0,5.0,92,-99.99,,,-99.99,,2013-02-21 09:22:00,
2013-02-21 01:31:00,28.0,26.0,-100.00,NE,44,3.0,4.0,92,-99.99,,,-99.99,,2013-02-21 09:31:00,
2013-02-21 01:41:00,28.0,26.0,-100.00,NNE,29,4.0,6.0,92,-99.99,,,-99.99,,2013-02-21 09:41:00,
2013-02-21 01:51:00,28.0,26.0,-100.00,NE,47,3.0,6.0,93,-99.99,,,-99.99,,2013-02-21 09:51:00,
2013-02-21 02:01:00,28.0,26.0,-100.00,ENE,62,5.0,6.0,93,-99.99,,,-99.99,,2013-02-21 10:01:00,
2013-02-21 02:11:00,28.0,26.0,-100.00,NE,54,2.0,5.0,93,-99.99,,,-99.99,,2013-02-21 10:11:00,
2013-02-21 02:21:00,27.0,25.0,-100.00,NE,37,3.0,5.0,92,-99.99,,,-99.99,,2013-02-21 10:21:00,
2013-02-21 02:31:00,27.0,26.0,-100.00,NNE,32,3.0,5.0,94,-99.99,,,-99.99,,2013-02-21 10:31:00,
2013-02-21 02:41:00,27.0,26.0,-100.00,NNE,32,3.0,5.0,94,-99.99,,,-99.99,,2013-02-21 10:41:00,
2013-02-21 02:51:00,26.0,24.0,-100.00,NNE,27,4.0,7.0,93,-99.99,,,-99.99,,2013-02-21 10:51:00,
2013-02-21 03:00:00,26.0,24.0,-100.00,NNE,27,4.0,7.0,93,-99.99,,,-99.99,,2013-02-21 11:00:00,
2013-02-21 03:11:00,27.0,26.0,-100.00,ENE,59,6.0,8.0,94,-99.99,,,-99.99,,2013-02-21 11:11:00,
2013-02-21 03:21:00,28.0,26.0,-100.00,ENE,58,5.0,7.0,93,-99.99,,,-99.99,,2013-02-21 11:21:00,
2013-02-21 03:31:00,28.0,26.0,-100.00,ENE,58,5.0,7.0,92,-99.99,,,-99.99,,2013-02-21 11:31:00,
2013-02-21 03:41:00,28.0,26.0,-100.00,NNE,29,5.0,6.0,92,-99.99,,,-99.99,,2013-02-21 11:41:00,
2013-02-21 03:51:00,27.0,25.0,-100.00,NE,38,4.0,6.0,93,-99.99,,,-99.99,,2013-02-21 11:51:00,
2013-02-21 04:01:00,28.0,26.0,-100.00,NE,39,3.0,6.0,93,-99.99,,,-99.99,,2013-02-21 12:01:00,
2013-02-21 04:11:00,28.0,26.0,-100.00,NNE,29,2.0,3.0,93,-99.99,,,-99.99,,2013-02-21 12:11:00,
2013-02-21 04:21:00,28.0,26.0,-100.00,NE,44,2.0,5.0,93,-99.99,,,-99.99,,2013-02-21 12:21:00,
2013-02-21 04:32:00,29.0,27.0,-100.00,NE,39,3.0,6.0,93,-99.99,,,-99.99,,2013-02-21 12:32:00,
2013-02-21 04:42:00,29.0,27.0,-100.00,ENE,58,5.0,6.0,93,-99.99,,,-99.99,,2013-02-21 12:42:00,
2013-02-21 04:52:00,30.0,28.0,-100.00,NE,56,3.0,5.0,92,-99.99,,,-99.99,,2013-02-21 12:52:00,
2013-02-21 05:01:00,30.0,28.0,-100.00,ENE,58,2.0,4.0,92,-99.99,,,-99.99,,2013-02-21 13:01:00,
2013-02-21 05:12:00,31.0,29.0,-100.00,SSE,157,0.0,1.0,92,-99.99,,,-99.99,,2013-02-21 13:12:00,
2013-02-21 05:22:00,31.0,29.0,-100.00,NNE,21,1.0,2.0,91,-99.99,,,-99.99,,2013-02-21 13:22:00,
2013-02-21 05:31:00,31.0,29.0,-100.00,NE,44,1.0,2.0,91,-99.99,,,-99.99,,2013-02-21 13:31:00,
2013-02-21 05:41:00,31.0,29.0,-100.00,NE,44,1.0,2.0,91,-99.99,,,-99.99,,2013-02-21 13:41:00,
2013-02-21 05:51:00,31.0,29.0,-100.00,NE,45,2.0,4.0,91,-99.99,,,-99.99,,2013-02-21 13:51:00,
2013-02-21 06:02:00,31.0,29.0,-100.00,NNE,24,2.0,4.0,92,-99.99,,,-99.99,,2013-02-21 14:02:00,
2013-02-21 06:11:00,31.0,29.0,-100.00,NNE,32,2.0,3.0,93,-99.99,,,-99.99,,2013-02-21 14:11:00,
2013-02-21 06:21:00,32.0,30.0,-100.00,NE,40,1.0,3.0,92,-99.99,,,-99.99,,2013-02-21 14:21:00,
2013-02-21 06:31:00,32.0,30.0,-100.00,NE,38,1.0,2.0,92,-99.99,,,-99.99,,2013-02-21 14:31:00,
2013-02-21 06:41:00,32.0,30.0,-100.00,East,79,1.0,2.0,92,-99.99,,,-99.99,,2013-02-21 14:41:00,
2013-02-21 06:52:00,32.0,30.0,-100.00,NE,50,1.0,2.0,92,-99.99,,,-99.99,,2013-02-21 14:52:00,
2013-02-21 07:01:00,32.0,30.0,-100.00,NE,46,2.0,3.0,91,-99.99,,,-99.99,,2013-02-21 15:01:00,
2013-02-21 07:12:00,32.0,30.0,-100.00,NNE,30,2.0,3.0,92,-99.99,,,-99.99,,2013-02-21 15:12:00,
2013-02-21 07:21:00,32.0,30.0,-100.00,NNE,29,2.0,3.0,92,-99.99,,,-99.99,,2013-02-21 15:21:00,
2013-02-21 07:31:00,32.0,30.0,-100.00,NE,42,2.0,3.0,92,-99.99,,,-99.99,,2013-02-21 15:31:00,
2013-02-21 07:41:00,32.0,30.0,-100.00,East,81,1.0,2.0,92,-99.99,,,-99.99,,2013-02-21 15:41:00,
2013-02-21 07:51:00,33.0,31.0,-100.00,NNE,17,2.0,3.0,91,-99.99,,,-99.99,,2013-02-21 15:51:00,
2013-02-21 08:01:00,33.0,31.0,-100.00,NNE,18,2.0,3.0,91,-99.99,,,-99.99,,2013-02-21 16:01:00,
2013-02-21 08:12:00,33.0,31.0,-100.00,NNE,30,2.0,3.0,92,-99.99,,,-99.99,,2013-02-21 16:12:00,
2013-02-21 08:21:00,34.0,32.0,-100.00,NNE,32,1.0,2.0,91,-99.99,,,-99.99,,2013-02-21 16:21:00,
2013-02-21 08:31:00,35.0,32.0,-100.00,NNE,17,1.0,2.0,88,-99.99,,,-99.99,,2013-02-21 16:31:00,
2013-02-21 08:42:00,36.0,32.0,-100.00,SSW,195,1.0,2.0,86,-99.99,,,-99.99,,2013-02-21 16:42:00,
2013-02-21 08:52:00,37.0,32.0,-100.00,SW,221,1.0,2.0,82,-99.99,,,-99.99,,2013-02-21 16:52:00,
2013-02-21 09:01:00,37.0,32.0,-100.00,SW,221,1.0,2.0,82,-99.99,,,-99.99,,2013-02-21 17:01:00,
2013-02-21 09:11:00,37.0,32.0,-100.00,WSW,255,2.0,4.0,81,-99.99,,,-99.99,,2013-02-21 17:11:00,
2013-02-21 09:21:00,37.0,32.0,-100.00,SW,216,1.0,3.0,81,-99.99,,,-99.99,,2013-02-21 17:21:00,
2013-02-21 09:32:00,38.0,32.0,-100.00,SW,229,1.0,2.0,78,-99.99,,,-99.99,,2013-02-21 17:32:00,
2013-02-21 09:41:00,38.0,32.0,-100.00,SW,227,2.0,4.0,78,-99.99,,,-99.99,,2013-02-21 17:41:00,
2013-02-21 09:52:00,39.0,33.0,-100.00,SW,223,3.0,5.0,79,-99.99,,,-99.99,,2013-02-21 17:52:00,
2013-02-21 10:01:00,39.0,33.0,-100.00,SW,223,3.0,5.0,79,-99.99,,,-99.99,,2013-02-21 18:01:00,
2013-02-21 10:11:00,39.0,33.0,-100.00,WSW,243,3.0,6.0,79,-99.99,,,-99.99,,2013-02-21 18:11:00,
2013-02-21 10:22:00,40.0,34.0,-100.00,WSW,258,4.0,7.0,79,-99.99,,,-99.99,,2013-02-21 18:22:00,
2013-02-21 10:31:00,41.0,35.0,-100.00,SW,234,6.0,9.0,78,-99.99,,,-99.99,,2013-02-21 18:31:00,
2013-02-21 10:42:00,41.0,35.0,-100.00,SW,234,6.0,9.0,78,-99.99,,,-99.99,,2013-02-21 18:42:00,
2013-02-21 10:51:00,41.0,34.0,-100.00,WSW,250,7.0,11.0,76,-99.99,,,-99.99,,2013-02-21 18:51:00,
2013-02-21 11:01:00,42.0,35.0,-100.00,SW,236,7.0,11.0,77,-99.99,,,-99.99,,2013-02-21 19:01:00,
2013-02-21 11:11:00,42.0,34.0,-100.00,SW,233,7.0,11.0,74,-99.99,,,-99.99,,2013-02-21 19:11:00,
2013-02-21 11:21:00,43.0,35.0,-100.00,SW,232,7.0,11.0,73,-99.99,,,-99.99,,2013-02-21 19:21:00,
2013-02-21 11:31:00,42.0,34.0,-100.00,SW,235,7.0,11.0,73,-99.99,,,-99.99,,2013-02-21 19:31:00,
2013-02-21 11:41:00,42.0,35.0,-100.00,SW,233,8.0,12.0,75,-99.99,,,-99.99,,2013-02-21 19:41:00,
2013-02-21 11:51:00,42.0,35.0,-100.00,SW,223,8.0,12.0,75,-99.99,,,-99.99,,2013-02-21 19:51:00,
2013-02-21 12:01:00,42.0,35.0,-100.00,SW,235,7.0,11.0,76,-99.99,,,-99.99,,2013-02-21 20:01:00,
2013-02-21 12:11:00,43.0,36.0,-100.00,SW,235,6.0,10.0,75,-99.99,,,-99.99,,2013-02-21 20:11:00,
2013-02-21 12:21:00,43.0,35.0,-100.00,WSW,238,7.0,13.0,74,-99.99,,,-99.99,,2013-02-21 20:21:00,
2013-02-21 12:31:00,43.0,36.0,-100.00,SW,236,8.0,13.0,76,-99.99,,,-99.99,,2013-02-21 20:31:00,
2013-02-21 12:41:00,43.0,36.0,-100.00,WSW,248,7.0,13.0,75,-99.99,,,-99.99,,2013-02-21 20:41:00,
2013-02-21 12:52:00,43.0,35.0,-100.00,WSW,248,8.0,14.0,74,-99.99,,,-99.99,,2013-02-21 20:52:00,
2013-02-21 13:02:00,43.0,35.0,-100.00,WSW,256,6.0,11.0,74,-99.99,,,-99.99,,2013-02-21 21:02:00,
2013-02-21 13:11:00,43.0,36.0,-100.00,WSW,245,5.0,11.0,75,-99.99,,,-99.99,,2013-02-21 21:11:00,
2013-02-21 13:21:00,43.0,35.0,-100.00,SW,223,8.0,12.0,73,-99.99,,,-99.99,,2013-02-21 21:21:00,
2013-02-21 13:31:00,44.0,36.0,-100.00,WSW,238,8.0,12.0,73,-99.99,,,-99.99,,2013-02-21 21:31:00,
2013-02-21 13:41:00,44.0,35.0,-100.00,WSW,243,7.0,11.0,71,-99.99,,,-99.99,,2013-02-21 21:41:00,
2013-02-21 13:51:00,44.0,36.0,-100.00,SW,235,9.0,15.0,74,-99.99,,,-99.99,,2013-02-21 21:51:00,
2013-02-21 14:01:00,43.0,36.0,-100.00,SW,227,10.0,16.0,77,-99.99,,,-99.99,,2013-02-21 22:01:00,
2013-02-21 14:11:00,41.0,37.0,-100.00,SW,217,9.0,14.0,84,-99.99,,,-99.99,,2013-02-21 22:11:00,
2013-02-21 14:21:00,40.0,36.0,-100.00,SW,218,6.0,10.0,87,-99.99,,,-99.99,,2013-02-21 22:21:00,
2013-02-21 14:31:00,40.0,37.0,-100.00,SW,222,3.0,6.0,88,-99.99,,,-99.99,,2013-02-21 22:31:00,
2013-02-21 14:41:00,41.0,37.0,-100.00,South,178,1.0,2.0,87,-99.99,,,-99.99,,2013-02-21 22:41:00,
2013-02-21 14:52:00,41.0,37.0,-100.00,East,86,1.0,1.0,87,-99.99,,,-99.99,,2013-02-21 22:52:00,
2013-02-21 15:01:00,41.0,37.0,-100.00,East,86,1.0,1.0,87,-99.99,,,-99.99,,2013-02-21 23:01:00,
2013-02-21 15:11:00,41.0,37.0,-100.00,NE,48,4.0,6.0,87,-99.99,,,-99.99,,2013-02-21 23:11:00,
2013-02-21 15:21:00,41.0,37.0,-100.00,ENE,62,4.0,6.0,87,-99.99,,,-99.99,,2013-02-21 23:21:00,
2013-02-21 15:31:00,41.0,37.0,-100.00,ESE,112,3.0,4.0,86,-99.99,,,-99.99,,2013-02-21 23:31:00,
2013-02-21 15:41:00,42.0,38.0,-100.00,East,100,1.0,3.0,86,-99.99,,,-99.99,,2013-02-21 23:41:00,
2013-02-21 15:52:00,42.0,38.0,-100.00,ESE,103,2.0,4.0,86,-99.99,,,-99.99,,2013-02-21 23:52:00,
2013-02-21 16:01:00,42.0,38.0,-100.00,ESE,103,2.0,4.0,86,-99.99,,,-99.99,,2013-02-22 00:01:00,
2013-02-21 16:11:00,42.0,38.0,-100.00,ENE,57,3.0,7.0,84,-99.99,,,-99.99,,2013-02-22 00:11:00,
2013-02-21 16:21:00,42.0,38.0,-100.00,NE,47,6.0,8.0,86,-99.99,,,-99.99,,2013-02-22 00:21:00,
2013-02-21 16:31:00,41.0,37.0,-100.00,NE,47,5.0,9.0,86,-99.99,,,-99.99,,2013-02-22 00:31:00,
2013-02-21 16:41:00,41.0,37.0,-100.00,SW,216,3.0,7.0,87,-99.99,,,-99.99,,2013-02-22 00:41:00,
2013-02-21 16:51:00,40.0,36.0,-100.00,North,356,6.0,13.0,86,-99.99,,,-99.99,,2013-02-22 00:51:00,
2013-02-21 17:01:00,38.0,35.0,-100.00,North,3,9.0,16.0,89,-99.99,,,-99.99,,2013-02-22 01:01:00,
2013-02-21 17:11:00,38.0,36.0,-100.00,NNE,28,3.0,8.0,91,-99.99,,,-99.99,,2013-02-22 01:11:00,
2013-02-21 17:21:00,38.0,35.0,-100.00,West,263,1.0,2.0,90,-99.99,,,-99.99,,2013-02-22 01:21:00,
2013-02-21 17:32:00,39.0,37.0,-100.00,SSW,193,2.0,2.0,91,-99.99,,,-99.99,,2013-02-22 01:32:00,
2013-02-21 17:42:00,38.0,36.0,-100.00,SSW,196,2.0,4.0,92,-99.99,,,-99.99,,2013-02-22 01:42:00,
2013-02-21 17:51:00,38.0,36.0,-100.00,SW,221,3.0,4.0,93,-99.99,,,-99.99,,2013-02-22 01:51:00,
2013-02-21 18:01:00,38.0,36.0,-100.00,South,188,2.0,3.0,93,-99.99,,,-99.99,,2013-02-22 02:01:00,
2013-02-21 18:11:00,38.0,36.0,-100.00,SE,129,2.0,3.0,93,-99.99,,,-99.99,,2013-02-22 02:11:00,
2013-02-21 18:21:00,38.0,36.0,-100.00,ESE,120,3.0,4.0,92,-99.99,,,-99.99,,2013-02-22 02:21:00,
2013-02-21 18:31:00,38.0,35.0,-100.00,East,81,4.0,4.0,90,-99.99,,,-99.99,,2013-02-22 02:31:00,
2013-02-21 18:42:00,38.0,36.0,-100.00,East,90,4.0,5.0,91,-99.99,,,-99.99,,2013-02-22 02:42:00,
2013-02-21 18:52:00,38.0,35.0,-100.00,East,99,4.0,5.0,89,-99.99,,,-99.99,,2013-02-22 02:52:00,
2013-02-21 19:01:00,37.0,34.0,-100.00,SSE,152,2.0,4.0,90,-99.99,,,-99.99,,2013-02-22 03:01:00,
2013-02-21 19:11:00,37.0,34.0,-100.00,South,172,1.0,4.0,90,-99.99,,,-99.99,,2013-02-22 03:11:00,
2013-02-21 19:21:00,37.0,34.0,-100.00,NNE,31,2.0,3.0,90,-99.99,,,-99.99,,2013-02-22 03:21:00,
2013-02-21 19:31:00,36.0,34.0,-100.00,ESE,105,1.0,2.0,91,-99.99,,,-99.99,,2013-02-22 03:31:00,
2013-02-21 19:41:00,36.0,34.0,-100.00,NNW,342,2.0,3.0,91,-99.99,,,-99.99,,2013-02-22 03:41:00,
2013-02-21 19:51:00,35.0,33.0,-100.00,NE,34,3.0,5.0,92,-99.99,,,-99.99,,2013-02-22 03:51:00,
2013-02-21 20:01:00,34.0,32.0,-100.00,NE,54,4.0,6.0,93,-99.99,,,-99.99,,2013-02-22 04:01:00,
2013-02-21 20:11:00,35.0,33.0,-100.00,ENE,63,4.0,6.0,94,-99.99,,,-99.99,,2013-02-22 04:11:00,
2013-02-21 20:21:00,34.0,32.0,-100.00,NNE,33,2.0,3.0,94,-99.99,,,-99.99,,2013-02-22 04:21:00,
2013-02-21 20:31:00,34.0,32.0,-100.00,NE,44,3.0,5.0,94,-99.99,,,-99.99,,2013-02-22 04:31:00,
2013-02-21 20:42:00,34.0,32.0,-100.00,ENE,73,6.0,7.0,94,-99.99,,,-99.99,,2013-02-22 04:42:00,
2013-02-21 20:51:00,34.0,32.0,-100.00,NNE,25,5.0,6.0,93,-99.99,,,-99.99,,2013-02-22 04:51:00,
2013-02-21 21:01:00,33.0,31.0,-100.00,NNE,30,4.0,6.0,94,-99.99,,,-99.99,,2013-02-22 05:01:00,
2013-02-21 21:11:00,33.0,31.0,-100.00,NE,39,5.0,6.0,94,-99.99,,,-99.99,,2013-02-22 05:11:00,
2013-02-21 21:22:00,33.0,31.0,-100.00,NE,45,5.0,8.0,94,-99.99,,,-99.99,,2013-02-22 05:22:00,
2013-02-21 21:32:00,33.0,31.0,-100.00,NE,45,5.0,10.0,94,-99.99,,,-99.99,,2013-02-22 05:32:00,
2013-02-21 21:41:00,33.0,31.0,-100.00,NNE,25,4.0,7.0,94,-99.99,,,-99.99,,2013-02-22 05:41:00,
2013-02-21 21:52:00,33.0,31.0,-100.00,ENE,59,2.0,4.0,94,-99.99,,,-99.99,,2013-02-22 05:52:00,
2013-02-21 22:01:00,33.0,31.0,-100.00,NNW,342,1.0,4.0,94,-99.99,,,-99.99,,2013-02-22 06:01:00,
2013-02-21 22:11:00,33.0,31.0,-100.00,NE,48,2.0,4.0,94,-99.99,,,-99.99,,2013-02-22 06:11:00,
2013-02-21 22:21:00,32.0,30.0,-100.00,ESE,102,3.0,5.0,94,-99.99,,,-99.99,,2013-02-22 06:21:00,
2013-02-21 22:31:00,33.0,31.0,-100.00,ENE,58,3.0,5.0,93,-99.99,,,-99.99,,2013-02-22 06:31:00,
2013-02-21 22:42:00,33.0,31.0,-100.00,ENE,58,3.0,5.0,93,-99.99,,,-99.99,,2013-02-22 06:42:00,
2013-02-21 22:51:00,32.0,30.0,-100.00,NE,40,4.0,7.0,93,-99.99,,,-99.99,,2013-02-22 06:51:00,
2013-02-21 23:01:00,32.0,30.0,-100.00,NE,39,4.0,7.0,94,-99.99,,,-99.99,,2013-02-22 07:01:00,
2013-02-21 23:11:00,31.0,29.0,-100.00,NE,45,5.0,7.0,94,-99.99,,,-99.99,,2013-02-22 07:11:00,
2013-02-21 23:21:00,31.0,29.0,-100.00,NE,38,5.0,7.0,94,-99.99,,,-99.99,,2013-02-22 07:21:00,
2013-02-21 23:31:00,31.0,29.0,-100.00,NE,36,4.0,7.0,94,-99.99,,,-99.99,,2013-02-22 07:31:00,
2013-02-21 23:42:00,31.0,29.0,-100.00,NNE,28,5.0,9.0,94,-99.99,,,-99.99,,2013-02-22 07:42:00,
2013-02-21 23:51:00,31.0,29.0,-100.00,ENE,58,6.0,10.0,94,-99.99,,,-99.99,,2013-02-22 07:51:00,